map of CBT home
CBT - Airport
Location
City:  Catumbela, Benguela, Angola
ICAO:FNCT
IATA:CBT

Details
Type:Airport (Aerodrome, Airfield)
Latitude:1228'45"S (-12.479166)
Longitude:1329'13"E (13.486944)
Variation:4.81W (WMM2015v2 magnetic declination)
0.18 annual change
Runways:1
Longest:12139 × 98 ft (3700 × 30 m)

Time
Time Zone:UTC+1
Local Time:

Weather
METAR:FNCT 041200Z 29006KT 9999 BKN015 29/25 Q1011
TAF:FNCT 032310Z 0400/0412 18004KT 7000 BKN020 PROB30
TEMPO 0404/0408 VRB03KT 9000 SCT018 BKN050
BECMG 0408/0411 24008KT 9999 SCT020 FEW023CB BKN050

Related Locations
Nearby:
Farthest:PLPA: 11890 mi / 19136 km
Palmyra Island Atoll [Palmyra Airport (Cooper)], UM

Find:

   beyond  
but within

Other Information
Maps:
NOTAMs:
Links:
Sources:

  
  • flag of Angola
  

Sectional Chart

Flight Planning
at skyvector.com

Satellite Image

Google Maps Satellite view

 

Copyright © 2004-2019 Karl L. Swartz. All rights reserved.
The Great Circle Mapper name and logo are trademarks of the Great Circle Mapper.
All other trademarks mentioned herein belong to their respective owners.
Please see credits for attibutions and further copyright information.

  Follow gcmap on Facebook Follow gcmap on Twitter GCmap on LinkedIn

hCard Microformat

Geo Microformat